{"data":{"norad_id":55283,"epoch":"2026-05-25T04:10:48.860832Z","epoch_age_seconds":63935,"freshness":"FRESH","line1":"1 55283U 23010Q   26145.17417663 -.00000264  00000+0 -14314-4 0  9992","line2":"2 55283  69.9999 211.5650 0002996 261.5191  98.5628 14.98337173184239","mean_motion":14.98337173,"eccentricity":0.0002996,"inclination_deg":69.9999,"raan_deg":211.565,"arg_perigee_deg":261.5191,"mean_anomaly_deg":98.5628,"bstar":-1.4314e-5,"rev_number":18423,"period_min":96.106539031986,"perigee_km":569.95143797766,"apogee_km":574.11598026657,"semimajor_km":6950.1707091221,"source":"CELESTRAK","updated_at":"2026-05-25T13:38:17.733258Z"}}